Wind_Speed
29 28 23 17 15 17 19 20 23 21 21 21 19 19 20 22 24 25 28 31 33 33 30 29 28 27 28 25 25 25 26 26 26 25 24 23 24 24 24 23 24 22 20 18
21 15 12 13 15 19 21 23 23 20 19 20 19 18 19 23 26 25 27 30 31 30 28 25 24 23 20 17 18 19 20 22 25 26 25 25 24 25 23 23 23 22 21 18
19 16 15 17 19 22 23 23 22 20 18 18 21 20 20 25 28 27 26 28 28 26 24 21 20 17 14 14 16 19 20 21 23 25 25 25 24 24 23 23 23 23 23 23
21 19 21 23 23 23 23 22 21 18 17 16 19 21 18 23 31 31 29 28 26 23 21 19 18 16 15 16 18 20 19 20 22 24 24 23 21 21 23 23 22 22 24 24
19 20 21 22 22 23 21 21 20 17 17 17 18 20 15 23 30 29 28 26 24 23 22 20 19 18 18 19 19 18 17 18 20 21 21 20 19 22 24 24 22 22 24 25
16 18 18 17 18 19 18 19 17 15 17 19 17 17 19 25 29 27 28 27 24 23 22 20 20 20 19 19 18 17 16 16 17 18 18 17 15 18 22 24 24 23 25 27
16 16 18 17 17 17 16 15 14 15 15 14 14 21 26 29 27 24 26 27 26 24 23 24 25 25 24 22 21 21 20 19 18 17 16 15 15 16 18 21 20 21 23 26
13 15 18 19 17 17 17 15 15 15 13 13 17 23 26 31 28 26 25 25 25 25 25 26 26 25 24 23 23 23 23 23 21 19 17 16 18 21 23 23 22 22 21 21
12 12 20 21 17 17 19 19 18 20 20 20 20 17 23 29 31 27 24 24 24 25 25 23 21 20 20 20 20 21 22 23 23 23 21 19 19 22 24 26 25 24 22 21
20 20 23 24 19 18 19 21 21 21 21 21 17 15 22 27 30 29 29 26 25 26 23 19 18 18 18 18 18 19 20 21 22 22 22 21 19 21 23 25 27 26 24 24
22 24 25 26 22 21 22 22 23 23 22 22 19 18 22 27 27 29 29 26 24 23 20 18 17 18 19 19 18 18 18 19 20 21 20 19 18 21 23 26 25 25 25 25
23 24 25 26 25 23 23 23 23 23 21 21 22 21 23 27 27 28 27 25 23 19 18 18 19 20 21 20 19 18 18 18 19 20 19 18 19 22 26 28 28 27 27 26
24 24 24 25 26 25 22 21 22 23 22 23 23 25 24 28 27 27 25 24 21 18 18 19 21 22 21 20 19 18 17 18 19 20 19 19 21 23 26 29 31 30 28 27
25 26 26 26 24 24 24 23 24 25 24 25 24 26 27 28 27 27 25 23 21 18 18 19 21 22 21 20 20 20 20 20 19 19 19 20 21 23 26 28 30 30 29 28
22 24 26 26 27 27 28 28 29 29 29 30 29 28 28 28 27 26 26 24 22 19 18 19 21 22 22 22 22 22 22 22 22 22 21 21 21 22 24 26 27 28 29 28
23 24 24 26 27 30 33 32 33 34 33 33 31 29 27 27 26 26 24 23 21 19 20 21 21 22 22 23 24 25 25 25 25 26 25 25 24 24 24 24 24 24 26 26
26 28 30 31 32 37 38 34 34 35 33 31 28 25 24 25 24 22 20 19 19 18 21 23 24 24 23 24 25 26 27 28 27 28 27 27 27 26 26 26 25 24 23 23
31 34 35 36 35 39 34 31 29 26 24 21 20 20 21 20 18 16 14 14 16 17 20 23 24 25 24 25 26 27 28 28 28 28 27 28 30 28 27 27 26 25 23 23
30 32 32 30 28 25 21 17 14 14 14 14 15 17 16 14 13 11 10 13 16 19 22 24 25 25 25 26 27 27 26 26 26 27 27 28 29 30 30 30 28 26 24 23
24 23 18 12 7 2 3 4 6 7 8 10 13 13 11 12 14 13 12 17 19 23 26 26 25 24 24 24 25 24 25 25 26 28 29 29 29 30 31 32 30 27 25 25
16 12 9 11 8 6 3 4 5 5 6 9 9 10 12 15 18 19 20 21 23 26 28 26 24 24 23 23 23 24 26 28 29 30 31 32 32 31 31 30 29 27 26 25
9 9 9 11 9 8 8 7 7 9 10 9 10 12 14 17 19 20 21 22 25 26 26 24 23 22 22 23 25 27 28 30 30 32 33 34 34 33 30 27 26 26 26 24
12 10 8 8 6 9 10 9 9 10 10 11 12 13 15 17 19 19 20 21 23 23 23 22 21 21 22 24 27 29 29 28 29 31 32 33 33 31 27 25 24 23 24 23
15 13 13 12 12 17 15 13 13 12 12 12 13 14 15 16 17 18 19 20 20 20 20 20 20 20 22 25 27 26 25 25 26 25 24 24 24 24 23 23 22 21 21 21
21 20 19 17 19 21 19 16 14 14 14 12 12 13 12 13 16 17 18 18 18 18 18 18 20 22 23 23 24 23 23 22 21 20 18 15 13 16 18 20 20 19 18 18
22 20 21 21 21 24 23 17 13 14 13 11 11 11 11 14 16 17 16 16 16 16 17 18 20 22 23 23 22 20 20 19 18 15 11 6 2 8 13 15 16 16 15 15
Wind_Direction
237 240 245 249 254 263 271 278 285 287 285 286 293 300 305 308 306 311 313 313 314 316 314 310 305 302 301 304 301 302 297 283 282 292 292 286 276 279 275 255 239 234 232 232
233 233 240 255 263 273 277 278 281 278 278 285 291 297 304 305 305 311 315 315 315 314 311 308 306 305 305 305 303 304 297 287 288 294 293 287 279 281 266 242 230 228 227 226
255 254 257 260 268 279 279 276 273 272 277 288 294 299 307 304 303 311 316 315 314 310 308 307 309 309 305 303 306 307 301 295 295 297 295 287 278 277 253 231 224 225 224 214
258 259 258 261 268 271 272 271 271 275 282 289 293 299 309 305 308 318 321 317 311 303 301 302 302 300 295 296 299 298 295 296 299 299 297 289 274 260 237 223 220 222 224 224
257 255 256 259 261 263 268 269 273 281 287 290 293 294 301 302 308 318 317 311 305 300 299 298 296 293 290 291 293 294 290 293 298 296 294 290 267 244 232 221 219 220 223 224
266 267 267 264 262 264 267 269 275 283 287 293 295 292 300 300 312 317 311 307 303 301 297 295 296 294 290 289 289 289 290 292 298 297 290 285 265 243 231 222 221 225 229 233
272 275 280 277 272 270 266 269 274 280 289 301 296 295 303 299 312 310 304 302 301 299 295 293 295 295 293 289 286 286 287 288 293 296 292 277 257 243 234 222 227 237 240 238
277 290 281 276 273 271 266 261 261 259 258 270 279 291 294 300 308 306 302 299 298 296 295 294 295 296 293 290 287 285 285 285 287 290 291 279 263 252 243 238 238 245 247 244
239 253 263 269 265 262 264 261 256 258 264 268 278 280 280 293 303 304 302 303 301 298 296 296 298 299 297 293 289 287 287 287 288 288 289 285 272 260 251 243 244 246 245 243
241 237 253 262 261 257 256 261 264 265 270 276 277 268 268 281 297 299 301 303 306 303 299 299 303 307 308 304 297 293 291 290 291 293 291 288 279 261 247 241 244 245 244 243
244 243 250 260 258 255 253 256 261 269 274 278 281 273 280 287 294 297 297 297 303 300 297 300 307 315 318 314 306 299 294 292 291 292 290 283 275 262 247 240 241 240 242 244
256 252 251 256 260 257 257 262 266 271 277 278 281 287 288 290 294 298 295 293 295 291 289 295 305 314 319 317 312 304 298 294 292 290 289 282 271 257 246 242 242 244 244 246
258 255 252 253 257 261 264 266 270 272 275 279 282 290 292 291 292 296 296 293 290 284 283 290 302 311 315 316 314 309 303 298 294 293 289 280 270 261 254 249 252 250 247 249
258 254 252 251 252 256 261 261 264 267 272 278 280 282 283 285 286 288 290 289 286 281 279 288 301 308 310 311 310 308 305 302 297 291 286 280 275 269 263 258 259 256 252 253
259 257 254 252 250 251 256 256 258 263 269 276 279 279 283 284 283 282 283 283 280 277 277 287 298 303 305 304 301 299 298 296 294 290 285 282 279 273 269 269 269 267 263 257
259 259 256 254 257 258 259 259 259 263 269 273 275 278 281 280 280 278 277 276 279 279 281 286 290 292 294 294 293 291 289 287 286 284 282 280 278 275 274 275 274 276 269 261
264 265 267 267 268 267 266 267 265 264 266 268 270 274 275 276 278 278 275 278 288 293 294 295 295 293 289 288 287 286 284 283 281 278 275 273 272 271 269 270 273 275 271 261
270 273 273 272 270 269 274 270 265 261 259 258 262 267 271 276 277 276 279 287 297 302 300 297 296 294 292 290 291 289 287 284 282 278 274 271 269 266 265 265 266 266 266 259
275 277 275 270 268 271 270 261 246 235 233 242 253 261 266 268 270 274 285 292 299 306 309 307 302 299 296 295 295 294 292 289 285 282 277 272 269 266 262 260 260 260 259 256
277 277 266 236 223 194 242 211 194 201 222 241 252 252 257 269 279 285 288 290 299 306 309 308 304 302 300 300 299 298 296 294 290 285 281 276 270 266 262 258 255 253 251 248
273 260 202 165 147 136 196 169 179 192 221 237 244 252 271 284 291 298 297 299 303 307 309 309 307 306 305 303 301 301 301 298 294 290 285 279 272 265 261 257 252 248 246 243
253 237 189 166 170 200 207 210 220 227 246 262 266 274 282 288 295 298 299 299 302 307 309 310 310 309 307 306 306 305 303 299 296 292 287 279 272 264 257 252 249 245 242 241
220 240 207 174 198 233 230 240 250 258 269 278 282 286 289 292 296 300 299 301 305 310 312 313 313 312 311 311 310 308 305 302 299 296 288 279 270 260 250 242 241 240 238 237
206 220 223 208 221 249 252 254 259 264 273 285 291 295 297 298 301 304 306 309 313 316 319 320 321 320 318 315 313 312 311 310 310 306 298 285 267 251 240 233 233 234 233 230
210 214 225 235 243 253 256 253 255 264 278 290 295 300 302 305 309 312 314 317 322 325 328 330 330 328 326 325 326 326 325 324 323 320 315 297 262 234 224 222 224 225 228 228
221 222 228 237 244 250 252 252 252 262 276 285 294 302 307 312 316 320 321 324 328 331 334 336 335 334 336 339 339 338 338 340 340 340 344 343 214 197 202 208 212 216 221 224
Height
5853 5857 5859 5860 5863 5864 5864 5864 5864 5864 5863 5862 5861 5861 5860 5858 5858 5857 5855 5853 5850 5848 5845 5841 5838 5836 5832 5831 5829 5826 5823 5818 5816 5819 5820 5820 5820 5821 5821 5822 5825 5829 5833 5836
5849 5852 5854 5856 5858 5859 5859 5859 5859 5859 5858 5858 5858 5857 5856 5853 5853 5853 5851 5848 5845 5842 5839 5836 5833 5831 5829 5827 5825 5824 5822 5818 5817 5815 5816 5815 5815 5815 5816 5817 5820 5825 5829 5832
5845 5849 5850 5852 5853 5854 5854 5854 5854 5855 5854 5853 5853 5853 5853 5849 5848 5848 5846 5842 5839 5836 5834 5831 5829 5827 5825 5824 5823 5822 5820 5818 5816 5813 5811 5810 5809 5809 5810 5812 5816 5820 5825 5829
5840 5843 5845 5846 5847 5847 5849 5849 5850 5850 5850 5850 5850 5849 5849 5846 5842 5840 5839 5835 5833 5831 5829 5827 5826 5824 5822 5821 5820 5818 5816 5813 5811 5809 5806 5805 5804 5804 5805 5808 5812 5816 5821 5826
5835 5837 5839 5841 5842 5843 5844 5845 5845 5845 5845 5846 5845 5845 5846 5842 5838 5836 5834 5831 5828 5826 5824 5823 5822 5820 5819 5817 5815 5813 5811 5809 5806 5805 5803 5801 5800 5801 5803 5805 5808 5812 5816 5821
5830 5831 5834 5836 5837 5838 5839 5840 5840 5840 5840 5842 5841 5841 5841 5837 5834 5832 5829 5826 5824 5821 5819 5818 5817 5815 5814 5812 5810 5808 5807 5805 5802 5800 5799 5798 5797 5799 5800 5800 5804 5808 5812 5815
5824 5826 5827 5829 5831 5833 5834 5836 5836 5836 5836 5837 5837 5836 5835 5831 5830 5828 5825 5822 5819 5817 5815 5813 5812 5810 5808 5807 5805 5804 5802 5800 5798 5797 5796 5796 5796 5797 5796 5795 5800 5803 5807 5809
5820 5822 5822 5823 5826 5827 5829 5831 5834 5834 5834 5835 5834 5832 5830 5825 5824 5823 5820 5818 5815 5813 5811 5808 5806 5804 5803 5802 5800 5798 5797 5796 5795 5793 5793 5793 5794 5795 5796 5796 5798 5800 5803 5805
5818 5820 5818 5820 5822 5824 5825 5826 5828 5828 5828 5828 5829 5829 5824 5819 5818 5817 5815 5813 5810 5808 5806 5804 5801 5799 5797 5796 5795 5793 5792 5790 5789 5789 5789 5789 5789 5790 5790 5791 5793 5795 5797 5799
5812 5815 5815 5816 5818 5820 5821 5822 5822 5822 5822 5822 5823 5823 5821 5816 5814 5811 5809 5807 5805 5803 5800 5799 5797 5795 5793 5791 5789 5788 5787 5785 5784 5783 5783 5784 5784 5784 5781 5782 5786 5789 5792 5795
5807 5809 5810 5811 5813 5815 5816 5817 5816 5816 5816 5816 5815 5818 5814 5812 5809 5806 5804 5802 5801 5798 5796 5794 5793 5790 5788 5786 5785 5783 5782 5781 5779 5778 5778 5778 5779 5779 5778 5777 5779 5782 5786 5789
5801 5803 5804 5806 5807 5808 5809 5810 5810 5811 5810 5809 5809 5812 5809 5805 5804 5801 5798 5797 5796 5794 5792 5790 5788 5786 5784 5782 5781 5779 5778 5777 5775 5774 5772 5773 5774 5775 5775 5774 5774 5776 5780 5783
5795 5798 5799 5800 5803 5803 5804 5804 5804 5804 5804 5803 5803 5805 5803 5799 5798 5796 5793 5791 5790 5790 5788 5786 5784 5782 5780 5778 5776 5775 5774 5773 5771 5769 5768 5768 5769 5769 5770 5770 5771 5772 5774 5776
5790 5791 5793 5795 5796 5796 5797 5798 5798 5797 5797 5797 5798 5798 5796 5794 5793 5791 5789 5787 5785 5785 5784 5783 5781 5778 5776 5774 5772 5770 5769 5768 5767 5765 5764 5763 5763 5764 5764 5764 5765 5766 5767 5769
5783 5784 5785 5787 5788 5789 5789 5790 5790 5791 5790 5791 5791 5791 5790 5788 5787 5786 5784 5782 5781 5780 5780 5779 5777 5774 5771 5769 5767 5765 5763 5762 5761 5760 5759 5759 5758 5758 5758 5758 5759 5759 5760 5762
5778 5778 5779 5779 5780 5780 5780 5781 5782 5783 5783 5784 5784 5784 5784 5782 5781 5779 5778 5776 5775 5775 5774 5774 5772 5769 5766 5763 5761 5759 5757 5756 5755 5754 5753 5753 5753 5753 5753 5753 5753 5753 5754 5755
5771 5771 5771 5772 5772 5770 5770 5774 5774 5774 5775 5776 5777 5778 5777 5776 5775 5774 5773 5772 5771 5770 5769 5766 5764 5762 5759 5757 5755 5752 5750 5749 5747 5746 5746 5746 5746 5747 5747 5748 5748 5748 5748 5749
5764 5763 5762 5762 5763 5760 5764 5762 5762 5765 5767 5769 5771 5772 5772 5771 5771 5770 5769 5768 5766 5765 5763 5760 5757 5754 5752 5749 5747 5745 5743 5741 5739 5737 5738 5737 5737 5739 5739 5740 5740 5741 5742 5743
5757 5755 5754 5753 5753 5754 5755 5755 5757 5759 5762 5765 5766 5767 5767 5767 5766 5766 5765 5764 5762 5760 5757 5754 5750 5747 5745 5742 5740 5737 5735 5732 5731 5729 5729 5729 5729 5729 5729 5731 5732 5733 5735 5736
5751 5749 5748 5748 5749 5751 5753 5754 5755 5758 5760 5762 5763 5764 5764 5763 5762 5762 5762 5760 5757 5754 5751 5747 5744 5741 5738 5735 5732 5730 5727 5725 5723 5721 5719 5719 5719 5719 5719 5720 5723 5725 5727 5729
5746 5745 5745 5745 5748 5750 5753 5754 5756 5759 5759 5760 5760 5760 5760 5759 5758 5757 5755 5753 5751 5748 5744 5741 5737 5734 5731 5728 5725 5723 5720 5717 5714 5712 5709 5707 5707 5707 5708 5710 5713 5716 5719 5721
5743 5744 5744 5746 5749 5753 5752 5754 5756 5757 5756 5757 5757 5757 5757 5755 5753 5752 5750 5748 5745 5742 5738 5734 5731 5728 5725 5722 5719 5715 5712 5707 5704 5700 5697 5695 5694 5695 5698 5701 5704 5707 5710 5714
5740 5744 5744 5747 5750 5750 5751 5752 5753 5754 5754 5754 5754 5753 5752 5751 5749 5747 5745 5743 5740 5736 5733 5729 5726 5723 5720 5716 5712 5707 5703 5698 5694 5689 5685 5682 5681 5683 5687 5691 5695 5699 5703 5706
5735 5741 5742 5744 5746 5747 5748 5749 5750 5751 5751 5751 5750 5749 5748 5746 5744 5742 5740 5737 5734 5731 5728 5725 5721 5718 5715 5710 5705 5700 5695 5691 5685 5680 5674 5670 5669 5672 5678 5683 5688 5692 5696 5700
5730 5735 5739 5742 5744 5744 5745 5746 5747 5747 5747 5747 5747 5746 5744 5743 5741 5738 5735 5733 5730 5727 5724 5721 5718 5714 5711 5706 5700 5695 5690 5685 5679 5673 5668 5664 5663 5666 5671 5677 5682 5687 5691 5695
5726 5731 5735 5738 5741 5741 5741 5742 5744 5744 5745 5745 5744 5743 5741 5740 5737 5735 5732 5729 5727 5724 5721 5718 5715 5712 5707 5702 5696 5691 5687 5681 5676 5671 5667 5663 5662 5664 5669 5674 5679 5683 5687 5691